Location: Alsip
(41.6689°N, 87.7387°W)
Time: 08:45:05
(UTC+00:00)

GEOS 3 Rocket - Pass Details

Date: 01 November 2020
Orbit: 770 x 850 km, 115.0° (Epoch: 03 December)

Event Time Altitude Azimuth Distance (km) Brightness Sun altitude
Exits shadow 00:13:21 21° 53° (NE) 1,784 4.9 -16.8°
Maximum altitude 00:14:22 23° 37° (NE) 1,733 5.0 -17.0°
Drops below altitude 10° 00:18:27 10° 347° (NNW) 2,476 6.2 -17.7°
Sets 00:21:14 0° 333° (NNW) 3,419 7.2 -18.2°
